This is the latest recevied weather packets stored in our database for station/object XE1GMR. If no packets are shown the sender has not sent any weather packets the latest 10 day(s).
| Time | Temp. | Humidity | Pressure | Rain* | Wind** | Luminosity | Snow |
|---|---|---|---|---|---|---|---|
| 1778236638 | 17.78° C | 65% | 1120.9 hPa | 0 mm | - | 0 W/m² | - |
| 1778236335 | 17.78° C | 65% | 1121.1 hPa | 0 mm | - | 0 W/m² | - |
| 1778236032 | 17.78° C | 66% | 1120.9 hPa | 0 mm | - | 0 W/m² | - |
| 1778235730 | 18.33° C | 64% | 1120.9 hPa | 0 mm | - | 0 W/m² | - |
| 1778235427 | 18.33° C | 64% | 1120.9 hPa | 0 mm | - | 0 W/m² | - |
| 1778235125 | 18.33° C | 64% | 1120.9 hPa | 0 mm | - | 0 W/m² | - |
| 1778234822 | 18.33° C | 63% | 1120.9 hPa | 0 mm | - | 0 W/m² | - |
| 1778234520 | 18.33° C | 63% | 1120.9 hPa | 0 mm | - | 0 W/m² | - |
| 1778234216 | 18.33° C | 63% | 1120.7 hPa | 0 mm | - | 0 W/m² | - |
| 1778233913 | 18.89° C | 63% | 1120.8 hPa | 0 mm | - | 0 W/m² | - |
| 1778233610 | 18.89° C | 62% | 1120.8 hPa | 0 mm | - | 0 W/m² | - |
| 1778233307 | 18.89° C | 62% | 1120.9 hPa | 0 mm | - | 0 W/m² | - |
| 1778233004 | 18.33° C | 62% | 1120.7 hPa | 0 mm | - | 0 W/m² | - |
| 1778232702 | 18.33° C | 62% | 1120.9 hPa | 0 mm | - | 0 W/m² | - |
| 1778232399 | 18.89° C | 62% | 1121.1 hPa | 0 mm | - | 0 W/m² | - |
| 1778232097 | 18.89° C | 61% | 1121.1 hPa | 0 mm | - | 0 W/m² | - |
| 1778231794 | 18.89° C | 62% | 1121.1 hPa | 0 mm | - | 0 W/m² | - |
| 1778231492 | 18.89° C | 62% | 1121.2 hPa | 0 mm | - | 0 W/m² | - |
| 1778231189 | 18.89° C | 62% | 1121.4 hPa | 0 mm | - | 0 W/m² | - |
| 1778230886 | 18.89° C | 60% | 1121.3 hPa | 0 mm | - | 0 W/m² | - |
| 1778230582 | 19.44° C | 60% | 1121.4 hPa | 0 mm | - | 0 W/m² | - |
| 1778230280 | 19.44° C | 59% | 1121.5 hPa | 0 mm | - | 0 W/m² | - |
| 1778229976 | 19.44° C | 58% | 1121.4 hPa | 0 mm | - | 0 W/m² | - |
| 1778229674 | 19.44° C | 58% | 1121.6 hPa | 0 mm | - | 0 W/m² | - |
| 1778229370 | 20° C | 58% | 1121.5 hPa | 0 mm | - | 0 W/m² | - |
* Rain latest hour (hover to see other rain measurements)
** Current wind speed in m/s (hover to see current wind gust speed)